Observations for Trim Market St
| Time | AQI | Temp °C | Hum % | Pres Pa | CO μg/m³ | H₂S μg/m³ | NO μg/m³ | NO₂ μg/m³ | O₃ μg/m³ | SO₂ μg/m³ | PM1 μg/m³ | PM2.5 μg/m³ | PM10 μg/m³ |
|---|---|---|---|---|---|---|---|---|---|---|---|---|---|
| Tuesday 25 August 2026 | |||||||||||||
| 19:41 | 3 | 18.3 | 70 | 49,943 | 0.14 | 0 | 1.2 | 31.88 | 53.74 | 0 | 6.41 | 7.88 | 11.27 |
| 19:40 | 3 | 18.4 | 70 | 50,527 | 0.15 | 0 | 1.12 | 27.44 | 57.26 | 0 | 7.84 | 8.38 | 11.91 |
| 19:39 | 3 | 18.4 | 70 | 51,050 | 0.12 | 0 | 1.23 | 23.72 | 59.27 | 0 | 9.26 | 9.85 | 13.79 |
| 19:38 | 3 | 18.4 | 70 | 51,515 | 0.12 | 0 | 1.22 | 29.27 | 57.23 | 0 | 7.84 | 9.37 | 15.67 |
| 19:37 | 3 | 18.4 | 70 | 51,979 | 0.12 | 0 | 1.22 | 21.56 | 59.73 | 0 | 6.41 | 9.38 | 14.43 |
| 19:36 | 3 | 18.5 | 70 | 52,363 | 0.12 | 0 | 1.32 | 26.3 | 58.6 | 0 | 7.13 | 9.39 | 13.81 |
| 19:35 | 3 | 18.5 | 70 | 52,732 | 0.13 | 0 | 1.32 | 25.94 | 59.74 | 0 | 7.84 | 10.85 | 15.07 |
| 19:34 | 3 | 18.5 | 70 | 53,125 | 0.13 | 0 | 1.23 | 23.67 | 62.16 | 0 | 9.98 | 11.84 | 16.35 |
| 19:33 | 3 | 18.5 | 70 | 53,348 | 0.12 | 0 | 1.23 | 22.51 | 61.55 | 0 | 8.55 | 10.87 | 15.72 |
| 19:32 | 3 | 18.6 | 69 | 53,574 | 0.11 | 0 | 1.24 | 18.76 | 66.57 | 0 | 7.13 | 7.95 | 11.31 |
| 19:30 | 3 | 18.6 | 69 | 53,839 | 0.1 | 0 | 1.24 | 24.77 | 63.7 | 0 | 4.99 | 6.5 | 9.42 |
| 19:29 | 3 | 18.6 | 69 | 54,058 | 0.11 | 0 | 1.36 | 26.95 | 59.97 | 0 | 5.7 | 8.46 | 13.22 |
| 19:28 | 3 | 18.6 | 69 | 54,238 | 0.11 | 0 | 1.4 | 19.08 | 62.49 | 0 | 4.99 | 6.51 | 10.06 |
| 19:22 | 3 | 18.7 | 69 | 54,667 | 0.09 | 0 | 0.96 | 23.1 | 64.36 | 0 | 5.7 | 8 | 11.98 |
| 19:15 | 3 | 18.8 | 68 | 54,926 | 0.06 | 0 | 1.31 | 43.77 | 47.47 | 0 | 2.85 | 6.08 | 10.08 |
| 19:14 | 3 | 18.8 | 68 | 54,999 | 0.06 | 0 | 1.09 | 43.06 | 50.1 | 0 | 6.41 | 7.55 | 11.36 |
| 19:13 | 3 | 18.8 | 68 | 55,032 | 0.06 | 0 | 1.01 | 31.19 | 60.62 | 0 | 4.99 | 7.07 | 10.09 |
| 19:12 | 3 | 18.8 | 68 | 55,093 | 0.07 | 0 | 1.02 | 80.01 | 11.05 | 0 | 7.13 | 8.05 | 12.01 |
| 19:11 | 3 | 18.9 | 68 | 55,168 | 0.03 | 0 | 0.93 | 21.39 | 69.36 | 0 | 7.13 | 9.52 | 13.29 |
| 19:08 | 3 | 18.9 | 67 | 55,345 | 0.04 | 0 | 1.05 | 24.94 | 61.51 | 0 | 6.41 | 7.58 | 12.03 |